HDGA4: War Eagle Creek At Hindsville, AR

                                SHEF ID:       HDGA4     War Eagle Crk nr Hindsville,AR
STATION TYPE:

STAGE RIV-FLOW WTR-TEMP CONDUCT BAT-LOAD
ft cfs F umho/cm volt
Ccp-Rev Ccp-Rev Ccp-Rev Ccp-Rev Ccp-Rev
(America/Chicago)
05/07 00:00 2.26 348 61.92 ---- 12.72
05/07 01:00 2.25 346 61.68 ---- 12.69
05/07 02:00 2.23 340 61.39 ---- 12.66
05/07 03:00 2.21 335 61.12 ---- 12.63
05/07 04:00 2.20 332 60.78 ---- 12.60
05/07 05:00 2.18 327 60.49 ---- 12.58
05/07 06:00 2.17 324 60.17 ---- 12.55
05/07 07:00 2.15 319 59.81 ---- 12.54
05/07 08:00 2.13 314 59.61 ---- 12.58
05/07 09:00 2.12 311 ---- ---- ----
05/07 10:00 2.11 309 60.21 ---- 13.07
05/07 11:00 2.09 303 60.44 ---- 13.28
05/07 12:00 2.08 301 60.82 ---- 13.28
05/07 13:00 2.07 298 61.25 ---- 13.30
05/07 14:00 2.05 293 62.24 ---- 13.82
05/07 15:00 2.04 291 62.80 ---- 13.72
05/07 16:00 2.03 288 63.32 ---- 13.65
05/07 17:00 2.01 283 63.86 ---- 13.16
05/07 18:00 2.00 281 64.47 ---- 13.01
05/07 19:00 1.99 278 64.65 ---- 12.88
05/07 20:00 1.98 276 64.60 ---- 12.83
05/07 21:00 1.97 274 64.47 ---- 12.82
05/07 22:00 1.95 269 64.15 ---- 12.80
05/07 23:00 1.95 269 63.79 ---- 12.77
Data processed at Fri 08May2026 04:13 GMT

NOTICE: If you are parsing this page

Please convert to using our Data API. Starting early 2026 we will be migrating to: https://water.usace.army.mil with modern pages rendered in JavaScript. When this migration completes you will no longer be able to scrape this page! CWMSDataAPI (CDA)

Timeseries IDs (TSIDs)

TSIDs used from left to right in the data table
HIND.Stage.Inst.1Hour.0.Ccp-Rev
HIND.Flow.Inst.1Hour.0.Ccp-Rev
HIND.Temp-Water.Inst.1Hour.0.Ccp-Rev
HIND.Cond.Inst.1Hour.0.Ccp-Rev
HIND.Volt-Battery Load.Inst.1Hour.0.Ccp-Rev

                            

All information presented herein is the property of the government of the United States of America and may be revised or deleted at any time without prior notice. Dissemination of this information without the expressed written consent of the Public Affairs Office, Tulsa District U.S. Army Corps of Engineers is strictly prohibited. These data are gathered electronically and, as presented, have NOT undergone any form of quality control. These data are NOT guaranteed to be valid or correct.